Time,TemperatureF,DewpointF,PressureIn,WindDirection,WindDirectionDegrees,WindSpeedMPH,WindSpeedGustMPH,Humidity,HourlyPrecipIn,Conditions,Clouds,dailyrainin,SoftwareType,DateUTC
2013-10-14 00:11:00,53.6,38.3,30.26,East,86,2.0,5.0,56,0.00,,---,0.00,VWS V14.01,2013-10-14 05:11:00,
2013-10-14 00:26:00,52.4,38.1,30.25,ENE,58,0.0,4.0,58,0.00,,---,0.00,VWS V14.01,2013-10-14 05:26:00,
2013-10-14 00:41:00,51.6,38.2,30.25,East,92,0.0,4.0,60,0.00,,---,0.00,VWS V14.01,2013-10-14 05:41:00,
2013-10-14 00:56:00,51.2,38.2,30.25,East,85,0.0,5.0,61,0.00,,---,0.00,VWS V14.01,2013-10-14 05:56:00,
2013-10-14 01:11:00,52.0,38.1,30.25,East,79,4.0,6.0,59,0.00,,---,0.00,VWS V14.01,2013-10-14 06:11:00,
2013-10-14 01:26:00,52.3,38.0,30.25,ENE,59,2.0,5.0,58,0.00,,---,0.00,VWS V14.01,2013-10-14 06:26:00,
2013-10-14 01:41:00,52.0,38.1,30.26,East,83,3.0,6.0,59,0.00,,---,0.00,VWS V14.01,2013-10-14 06:41:00,
2013-10-14 01:56:00,51.8,37.5,30.26,East,90,1.0,6.0,58,0.00,,---,0.00,VWS V14.01,2013-10-14 06:56:00,
2013-10-14 02:11:00,51.8,37.9,30.25,ESE,107,5.0,8.0,59,0.00,,---,0.00,VWS V14.01,2013-10-14 07:11:00,
2013-10-14 02:26:00,51.8,37.5,30.25,ESE,106,1.0,10.0,58,0.00,,---,0.00,VWS V14.01,2013-10-14 07:26:00,
2013-10-14 02:41:00,51.7,37.4,30.24,East,98,2.0,8.0,58,0.00,,---,0.00,VWS V14.01,2013-10-14 07:41:00,
2013-10-14 02:56:00,51.6,37.8,30.23,East,90,1.0,8.0,59,0.00,,---,0.00,VWS V14.01,2013-10-14 07:56:00,
2013-10-14 03:11:00,51.4,38.0,30.23,East,92,5.0,8.0,60,0.00,,---,0.00,VWS V14.01,2013-10-14 08:11:00,
2013-10-14 03:26:00,51.1,38.1,30.22,ESE,118,1.0,7.0,61,0.00,,---,0.00,VWS V14.01,2013-10-14 08:26:00,
2013-10-14 03:41:00,50.8,38.3,30.22,East,98,1.0,8.0,62,0.00,,---,0.00,VWS V14.01,2013-10-14 08:41:00,
2013-10-14 03:56:00,50.8,38.3,30.22,East,94,1.0,8.0,62,0.00,,---,0.00,VWS V14.01,2013-10-14 08:56:00,
2013-10-14 04:11:00,50.4,38.3,30.21,ESE,110,1.0,7.0,63,0.00,,---,0.00,VWS V14.01,2013-10-14 09:11:00,
2013-10-14 04:26:00,50.3,38.6,30.20,East,90,0.0,7.0,64,0.00,,---,0.00,VWS V14.01,2013-10-14 09:26:00,
2013-10-14 04:41:00,50.3,38.6,30.20,ESE,123,0.0,7.0,64,0.00,,---,0.00,VWS V14.01,2013-10-14 09:41:00,
2013-10-14 04:56:00,50.4,38.3,30.20,East,86,3.0,9.0,63,0.00,,---,0.00,VWS V14.01,2013-10-14 09:56:00,
2013-10-14 05:11:00,50.5,38.4,30.20,ESE,105,6.0,9.0,63,0.00,,---,0.00,VWS V14.01,2013-10-14 10:11:00,
2013-10-14 05:26:00,50.6,38.5,30.19,SE,125,5.0,13.0,63,0.00,,---,0.00,VWS V14.01,2013-10-14 10:26:00,
2013-10-14 05:41:00,50.6,38.5,30.18,SE,132,1.0,11.0,63,0.00,,---,0.00,VWS V14.01,2013-10-14 10:41:00,
2013-10-14 05:56:00,50.8,38.7,30.17,ESE,112,4.0,9.0,63,0.00,,---,0.00,VWS V14.01,2013-10-14 10:56:00,
2013-10-14 06:11:00,51.0,38.5,30.17,East,95,2.0,14.0,62,0.00,,---,0.00,VWS V14.01,2013-10-14 11:11:00,
2013-10-14 06:26:00,51.3,38.3,30.17,ESE,109,7.0,13.0,61,0.00,,---,0.00,VWS V14.01,2013-10-14 11:26:00,
2013-10-14 06:41:00,51.6,38.2,30.16,SE,140,9.0,14.0,60,0.00,,---,0.00,VWS V14.01,2013-10-14 11:41:00,
2013-10-14 06:56:00,51.8,38.4,30.16,ESE,117,4.0,13.0,60,0.00,,---,0.00,VWS V14.01,2013-10-14 11:56:00,
2013-10-14 07:11:00,52.0,38.1,30.16,ENE,73,4.0,15.0,59,0.00,,---,0.00,VWS V14.01,2013-10-14 12:11:00,
2013-10-14 07:26:00,52.2,38.3,30.15,SSE,150,4.0,17.0,59,0.00,,---,0.00,VWS V14.01,2013-10-14 12:26:00,
2013-10-14 07:41:00,52.5,38.2,30.17,SSE,149,8.0,17.0,58,0.00,,---,0.00,VWS V14.01,2013-10-14 12:41:00,
2013-10-14 07:56:00,52.5,38.2,30.16,SE,144,9.0,15.0,58,0.00,,---,0.00,VWS V14.01,2013-10-14 12:56:00,
2013-10-14 08:11:00,52.5,38.2,30.16,SE,138,8.0,18.0,58,0.00,,---,0.00,VWS V14.01,2013-10-14 13:11:00,
2013-10-14 08:26:00,52.4,38.5,30.15,ESE,103,9.0,20.0,59,0.00,,---,0.00,VWS V14.01,2013-10-14 13:26:00,
2013-10-14 08:41:00,52.5,39.0,30.13,ESE,109,2.0,15.0,60,0.00,,---,0.00,VWS V14.01,2013-10-14 13:41:00,
2013-10-14 08:56:00,53.0,39.1,30.15,SE,126,12.0,16.0,59,0.00,,---,0.00,VWS V14.01,2013-10-14 13:56:00,
2013-10-14 09:11:00,54.0,40.0,30.13,East,86,10.0,12.0,59,0.00,,---,0.00,VWS V14.01,2013-10-14 14:11:00,
2013-10-14 09:26:00,54.6,39.7,30.14,SE,126,5.0,19.0,57,0.00,,---,0.00,VWS V14.01,2013-10-14 14:26:00,
2013-10-14 09:41:00,55.0,40.1,30.14,SE,142,7.0,15.0,57,0.00,,---,0.00,VWS V14.01,2013-10-14 14:41:00,
2013-10-14 09:56:00,55.2,40.7,30.13,ESE,115,1.0,17.0,58,0.00,,---,0.00,VWS V14.01,2013-10-14 14:56:00,
2013-10-14 10:11:00,55.8,41.3,30.13,SE,140,8.0,16.0,58,0.00,,---,0.00,VWS V14.01,2013-10-14 15:11:00,
2013-10-14 10:26:00,57.6,42.0,30.12,SE,132,11.0,15.0,56,0.00,,---,0.00,VWS V14.01,2013-10-14 15:26:00,
2013-10-14 10:41:00,58.9,42.8,30.11,ESE,108,7.0,22.0,55,0.00,,---,0.00,VWS V14.01,2013-10-14 15:41:00,
2013-10-14 10:56:00,60.1,42.4,30.10,SE,140,5.0,20.0,52,0.00,,---,0.00,VWS V14.01,2013-10-14 15:56:00,
2013-10-14 11:11:00,60.4,43.2,30.09,SSE,150,10.0,20.0,53,0.00,,---,0.00,VWS V14.01,2013-10-14 16:11:00,
2013-10-14 11:26:00,60.2,43.0,30.08,SE,132,13.0,20.0,53,0.00,,---,0.00,VWS V14.01,2013-10-14 16:26:00,
2013-10-14 11:41:00,60.9,44.2,30.08,SE,132,8.0,19.0,54,0.00,,---,0.00,VWS V14.01,2013-10-14 16:41:00,
2013-10-14 11:56:00,63.2,44.3,30.08,SE,131,8.0,20.0,50,0.00,,---,0.00,VWS V14.01,2013-10-14 16:56:00,
2013-10-14 12:11:00,64.0,43.9,30.07,ESE,120,13.0,20.0,48,0.00,,---,0.00,VWS V14.01,2013-10-14 17:11:00,
2013-10-14 12:26:00,64.3,44.2,30.05,SSE,156,8.0,23.0,48,0.00,,---,0.00,VWS V14.01,2013-10-14 17:26:00,
2013-10-14 12:41:00,64.9,45.3,30.05,ESE,111,18.0,24.0,49,0.00,,---,0.00,VWS V14.01,2013-10-14 17:41:00,
2013-10-14 12:56:00,65.7,46.0,30.03,ESE,115,13.0,23.0,49,0.00,,---,0.00,VWS V14.01,2013-10-14 17:56:00,
2013-10-14 13:11:00,66.9,47.1,30.02,ESE,109,12.0,23.0,49,0.00,,---,0.00,VWS V14.01,2013-10-14 18:11:00,
2013-10-14 13:26:00,67.8,48.0,30.02,SSE,163,6.0,21.0,49,0.00,,---,0.00,VWS V14.01,2013-10-14 18:26:00,
2013-10-14 13:41:00,67.8,48.5,30.01,SSE,148,9.0,24.0,50,0.00,,---,0.00,VWS V14.01,2013-10-14 18:41:00,
2013-10-14 13:56:00,67.4,48.7,30.00,SE,135,6.0,20.0,51,0.00,,---,0.00,VWS V14.01,2013-10-14 18:56:00,
2013-10-14 14:11:00,67.7,49.5,29.99,SSE,161,7.0,21.0,52,0.00,,---,0.00,VWS V14.01,2013-10-14 19:11:00,
2013-10-14 14:26:00,67.5,49.8,29.98,SSE,159,11.0,22.0,53,0.00,,---,0.00,VWS V14.01,2013-10-14 19:26:00,
2013-10-14 14:41:00,67.4,50.7,29.97,SSE,153,14.0,22.0,55,0.00,,---,0.00,VWS V14.01,2013-10-14 19:41:00,
2013-10-14 14:56:00,67.2,51.5,29.95,SSE,150,13.0,18.0,57,0.00,,---,0.00,VWS V14.01,2013-10-14 19:56:00,
2013-10-14 15:11:00,66.9,52.1,29.95,SSE,160,16.0,24.0,59,0.00,,---,0.00,VWS V14.01,2013-10-14 20:11:00,
2013-10-14 15:26:00,65.8,53.3,29.95,SSE,160,9.0,22.0,64,0.00,,---,0.00,VWS V14.01,2013-10-14 20:26:00,
2013-10-14 15:41:00,64.1,54.1,29.94,SSE,148,7.0,17.0,70,0.00,,---,0.00,VWS V14.01,2013-10-14 20:41:00,
2013-10-14 15:56:00,63.5,53.2,29.93,SE,126,8.0,14.0,69,0.00,,---,0.00,VWS V14.01,2013-10-14 20:56:00,
2013-10-14 16:11:00,63.4,53.5,29.93,SSE,151,8.0,17.0,70,0.00,,---,0.00,VWS V14.01,2013-10-14 21:11:00,
2013-10-14 16:26:00,63.4,53.5,29.93,SSE,150,6.0,18.0,70,0.00,,---,0.00,VWS V14.01,2013-10-14 21:26:00,
2013-10-14 16:41:00,63.2,53.7,29.92,SE,143,11.0,15.0,71,0.00,,---,0.00,VWS V14.01,2013-10-14 21:41:00,
2013-10-14 16:56:00,62.7,53.5,29.91,SSE,154,9.0,22.0,72,0.00,,---,0.00,VWS V14.01,2013-10-14 21:56:00,
2013-10-14 17:11:00,62.4,53.6,29.90,SE,137,4.0,18.0,73,0.00,,---,0.00,VWS V14.01,2013-10-14 22:11:00,
2013-10-14 17:26:00,62.0,53.6,29.90,SE,138,5.0,20.0,74,0.00,,---,0.00,VWS V14.01,2013-10-14 22:26:00,
2013-10-14 17:41:00,62.1,53.7,29.90,SE,138,4.0,15.0,74,0.00,,---,0.00,VWS V14.01,2013-10-14 22:41:00,
2013-10-14 17:56:00,62.1,54.1,29.89,SSE,149,9.0,15.0,75,0.00,,---,0.00,VWS V14.01,2013-10-14 22:56:00,
2013-10-14 18:11:00,62.0,54.0,29.89,SSE,167,9.0,18.0,75,0.00,,---,0.00,VWS V14.01,2013-10-14 23:11:00,
2013-10-14 18:26:00,62.0,54.4,29.90,SSE,155,8.0,16.0,76,0.00,,---,0.00,VWS V14.01,2013-10-14 23:26:00,
2013-10-14 18:41:00,61.7,54.4,29.89,SSE,163,12.0,14.0,77,0.00,,---,0.00,VWS V14.01,2013-10-14 23:41:00,
2013-10-14 18:56:00,61.9,54.6,29.89,SSE,159,6.0,15.0,77,0.00,,---,0.00,VWS V14.01,2013-10-14 23:56:00,
2013-10-14 19:11:00,61.9,55.0,29.88,SSE,158,5.0,18.0,78,0.00,,---,0.00,VWS V14.01,2013-10-15 00:11:00,
2013-10-14 19:26:00,62.2,55.3,29.86,SSE,157,7.0,25.0,78,0.00,,---,0.00,VWS V14.01,2013-10-15 00:26:00,
2013-10-14 19:41:00,61.7,55.1,29.85,SE,127,8.0,17.0,79,0.00,,---,0.00,VWS V14.01,2013-10-15 00:41:00,
2013-10-14 19:56:00,61.2,55.0,29.85,ESE,123,13.0,18.0,80,0.00,,---,0.00,VWS V14.01,2013-10-15 00:56:00,
2013-10-14 20:11:00,61.1,55.6,29.84,ESE,115,7.0,18.0,82,0.00,,---,0.00,VWS V14.01,2013-10-15 01:11:00,
2013-10-14 20:26:00,61.0,55.8,29.84,SSE,148,12.0,18.0,83,0.00,,---,0.00,VWS V14.01,2013-10-15 01:26:00,
2013-10-14 20:41:00,61.6,56.7,29.84,SE,127,5.0,17.0,84,0.00,,---,0.00,VWS V14.01,2013-10-15 01:41:00,
2013-10-14 20:56:00,61.9,57.0,29.84,SE,139,8.0,20.0,84,0.00,,---,0.00,VWS V14.01,2013-10-15 01:56:00,
2013-10-14 21:11:00,62.0,57.5,29.84,South,169,10.0,16.0,85,0.00,,---,0.00,VWS V14.01,2013-10-15 02:11:00,
2013-10-14 21:26:00,62.0,57.8,29.83,SSE,161,13.0,17.0,86,0.00,,---,0.00,VWS V14.01,2013-10-15 02:26:00,
2013-10-14 21:41:00,62.1,58.2,29.83,SSE,163,13.0,19.0,87,0.00,,---,0.00,VWS V14.01,2013-10-15 02:41:00,
2013-10-14 21:56:00,63.1,58.8,29.83,SSE,165,16.0,23.0,86,0.00,,---,0.00,VWS V14.01,2013-10-15 02:56:00,
2013-10-14 22:11:00,62.4,58.8,29.83,SSE,153,12.0,25.0,88,0.00,,---,0.00,VWS V14.01,2013-10-15 03:11:00,
2013-10-14 22:26:00,61.7,58.7,29.82,SSE,155,13.0,27.0,90,0.01,,---,0.01,VWS V14.01,2013-10-15 03:26:00,
2013-10-14 22:41:00,61.8,58.8,29.82,SE,132,15.0,25.0,90,0.01,,---,0.01,VWS V14.01,2013-10-15 03:41:00,
2013-10-14 22:56:00,62.3,57.7,29.81,ESE,117,19.0,26.0,85,0.01,,---,0.01,VWS V14.01,2013-10-15 03:56:00,
2013-10-14 23:11:00,62.5,57.6,29.81,SSE,166,10.0,30.0,84,0.01,,---,0.01,VWS V14.01,2013-10-15 04:11:00,
2013-10-14 23:26:00,62.3,57.7,29.81,SE,146,20.0,27.0,85,0.01,,---,0.01,VWS V14.01,2013-10-15 04:26:00,
2013-10-14 23:41:00,62.1,57.5,29.82,ESE,123,7.0,30.0,85,0.00,,---,0.01,VWS V14.01,2013-10-15 04:41:00,
2013-10-14 23:56:00,61.6,57.7,29.81,SE,142,7.0,24.0,87,0.00,,---,0.01,VWS V14.01,2013-10-15 04:56:00,